Year,Month,Day,Hour,Minute,Value (Times are PST for temperature in C)
2016,04,08,00,00,11.10
2016,04,08,00,01,11.10
2016,04,08,00,02,11.10
2016,04,08,00,03,11.10
2016,04,08,00,04,11.10
2016,04,08,00,05,11.10
2016,04,08,00,06,11.10
2016,04,08,00,07,11.10
2016,04,08,00,08,11.10
2016,04,08,00,09,11.10
2016,04,08,00,10,11.10
2016,04,08,00,11,11.10
2016,04,08,00,12,11.10
2016,04,08,00,13,11.10
2016,04,08,00,14,11.10
2016,04,08,00,15,11.10
2016,04,08,00,16,11.10
2016,04,08,00,17,11.10
2016,04,08,00,18,11.10
2016,04,08,00,19,11.10
2016,04,08,00,20,11.10
2016,04,08,00,21,11.10
2016,04,08,00,22,11.10
2016,04,08,00,23,11.10
2016,04,08,00,24,11.10
2016,04,08,00,25,11.10
2016,04,08,00,26,10.90
2016,04,08,00,27,10.90
2016,04,08,00,28,10.90
2016,04,08,00,29,10.90
2016,04,08,00,30,10.90
2016,04,08,00,31,10.90
2016,04,08,00,32,10.90
2016,04,08,00,33,10.90
2016,04,08,00,34,10.90
2016,04,08,00,35,10.90
2016,04,08,00,36,10.80
2016,04,08,00,37,10.80
2016,04,08,00,38,10.80
2016,04,08,00,39,10.80
2016,04,08,00,40,10.70
2016,04,08,00,41,10.70
2016,04,08,00,42,10.70
2016,04,08,00,43,10.60
2016,04,08,00,44,10.60
2016,04,08,00,45,10.60
2016,04,08,00,46,10.60
2016,04,08,00,47,10.60
2016,04,08,00,48,10.60
2016,04,08,00,49,10.60
2016,04,08,00,50,10.50
2016,04,08,00,51,10.40
2016,04,08,00,52,10.40
2016,04,08,00,53,10.50
2016,04,08,00,54,10.60
2016,04,08,00,55,10.60
2016,04,08,00,56,10.60
2016,04,08,00,57,10.60
2016,04,08,00,58,10.60
2016,04,08,00,59,10.60
2016,04,08,01,00,10.60
2016,04,08,01,01,10.60
2016,04,08,01,02,10.60
2016,04,08,01,03,10.50
2016,04,08,01,04,10.40
2016,04,08,01,05,10.40
2016,04,08,01,06,10.40
2016,04,08,01,07,10.40
2016,04,08,01,08,10.40
2016,04,08,01,09,10.40
2016,04,08,01,10,10.40
2016,04,08,01,11,10.30
2016,04,08,01,12,10.30
2016,04,08,01,13,10.30
2016,04,08,01,14,10.20
2016,04,08,01,15,10.20
2016,04,08,01,16,10.20
2016,04,08,01,17,10.10
2016,04,08,01,18,10.10
2016,04,08,01,19,10.20
2016,04,08,01,20,10.20
2016,04,08,01,21,10.20
2016,04,08,01,22,10.20
2016,04,08,01,23,10.20
2016,04,08,01,24,10.20
2016,04,08,01,25,10.20
2016,04,08,01,26,10.20
2016,04,08,01,27,10.10
2016,04,08,01,28,10.10
2016,04,08,01,29,10.10
2016,04,08,01,30,10.10
2016,04,08,01,31,10.10
2016,04,08,01,32,10.10
2016,04,08,01,33,10.10
2016,04,08,01,34,10.10
2016,04,08,01,35,10.10
2016,04,08,01,36,10.10
2016,04,08,01,37,10.00
2016,04,08,01,38,9.90
2016,04,08,01,39,9.90
2016,04,08,01,40,9.90
2016,04,08,01,41,9.90
2016,04,08,01,42,9.90
2016,04,08,01,43,9.90
2016,04,08,01,44,9.90
2016,04,08,01,45,9.90
2016,04,08,01,46,9.80
2016,04,08,01,47,9.80
2016,04,08,01,48,9.80
2016,04,08,01,49,9.80
2016,04,08,01,50,9.80
2016,04,08,01,51,9.80
2016,04,08,01,52,9.70
2016,04,08,01,53,9.70
2016,04,08,01,54,9.70
2016,04,08,01,55,9.70
2016,04,08,01,56,9.70
2016,04,08,01,57,9.70
2016,04,08,01,58,9.70
2016,04,08,01,59,9.70
2016,04,08,02,00,9.70
2016,04,08,02,01,9.70
2016,04,08,02,02,9.70
2016,04,08,02,03,9.70
2016,04,08,02,04,9.70
2016,04,08,02,05,9.70
2016,04,08,02,06,9.70
2016,04,08,02,07,9.60
2016,04,08,02,08,9.60
2016,04,08,02,09,9.60
2016,04,08,02,10,9.60
2016,04,08,02,11,9.60
2016,04,08,02,12,9.60
2016,04,08,02,13,9.50
2016,04,08,02,14,9.50
2016,04,08,02,15,9.50
2016,04,08,02,16,9.50
2016,04,08,02,17,9.50
2016,04,08,02,18,9.50
2016,04,08,02,19,9.50
2016,04,08,02,20,9.40
2016,04,08,02,21,9.40
2016,04,08,02,22,9.40
2016,04,08,02,23,9.40
2016,04,08,02,24,9.40
2016,04,08,02,25,9.40
2016,04,08,02,26,9.40
2016,04,08,02,27,9.40
2016,04,08,02,28,9.40
2016,04,08,02,29,9.30
2016,04,08,02,30,9.30
2016,04,08,02,31,9.30
2016,04,08,02,32,9.30
2016,04,08,02,33,9.30
2016,04,08,02,34,9.30
2016,04,08,02,35,9.20
2016,04,08,02,36,9.20
2016,04,08,02,37,9.20
2016,04,08,02,38,9.20
2016,04,08,02,39,9.20
2016,04,08,02,40,9.20
2016,04,08,02,41,9.20
2016,04,08,02,42,9.20
2016,04,08,02,43,9.20
2016,04,08,02,44,9.20
2016,04,08,02,45,9.20
2016,04,08,02,46,9.20
2016,04,08,02,47,9.20
2016,04,08,02,48,9.20
2016,04,08,02,49,9.20
2016,04,08,02,50,9.20
2016,04,08,02,51,9.20
2016,04,08,02,52,9.10
2016,04,08,02,53,9.10
2016,04,08,02,54,9.10
2016,04,08,02,55,9.10
2016,04,08,02,56,9.10
2016,04,08,02,57,9.10
2016,04,08,02,58,9.10
2016,04,08,02,59,9.00
2016,04,08,03,00,9.00
2016,04,08,03,01,9.00
2016,04,08,03,02,9.00
2016,04,08,03,03,9.00
2016,04,08,03,04,9.00
2016,04,08,03,05,9.00
2016,04,08,03,06,9.00
2016,04,08,03,07,9.00
2016,04,08,03,08,9.00
2016,04,08,03,09,9.00
2016,04,08,03,10,9.00
2016,04,08,03,11,9.00
2016,04,08,03,12,9.00
2016,04,08,03,13,9.00
2016,04,08,03,14,8.90
2016,04,08,03,15,8.90
2016,04,08,03,16,8.90
2016,04,08,03,17,8.90
2016,04,08,03,18,8.90
2016,04,08,03,19,8.90
2016,04,08,03,20,8.80
2016,04,08,03,21,8.80
2016,04,08,03,22,8.80
2016,04,08,03,23,8.80
2016,04,08,03,24,8.80
2016,04,08,03,25,8.80
2016,04,08,03,26,8.80
2016,04,08,03,27,8.80
2016,04,08,03,28,8.80
2016,04,08,03,29,8.80
2016,04,08,03,30,8.80
2016,04,08,03,31,8.80
2016,04,08,03,32,8.80
2016,04,08,03,33,8.80
2016,04,08,03,34,8.80
2016,04,08,03,35,8.80
2016,04,08,03,36,8.80
2016,04,08,03,37,8.80
2016,04,08,03,38,8.80
2016,04,08,03,39,8.80
2016,04,08,03,40,8.80
2016,04,08,03,41,8.80
2016,04,08,03,42,8.80
2016,04,08,03,43,8.80
2016,04,08,03,44,8.80
2016,04,08,03,45,8.80
2016,04,08,03,46,8.80
2016,04,08,03,47,8.80
2016,04,08,03,48,8.80
2016,04,08,03,49,8.80
2016,04,08,03,50,8.80
2016,04,08,03,51,8.70
2016,04,08,03,52,8.70
2016,04,08,03,53,8.70
2016,04,08,03,54,8.70
2016,04,08,03,55,8.60
2016,04,08,03,56,8.60
2016,04,08,03,57,8.50
2016,04,08,03,58,8.50
2016,04,08,03,59,8.50
2016,04,08,04,00,8.40
2016,04,08,04,01,8.40
2016,04,08,04,02,8.50
2016,04,08,04,03,8.50
2016,04,08,04,04,8.50
2016,04,08,04,05,8.50
2016,04,08,04,06,8.50
2016,04,08,04,07,8.60
2016,04,08,04,08,8.60
2016,04,08,04,09,8.60
2016,04,08,04,10,8.60
2016,04,08,04,11,8.60
2016,04,08,04,12,8.60
2016,04,08,04,13,8.60
2016,04,08,04,14,8.60
2016,04,08,04,15,8.60
2016,04,08,04,16,8.60
2016,04,08,04,17,8.60
2016,04,08,04,18,8.60
2016,04,08,04,19,8.50
2016,04,08,04,20,8.50
2016,04,08,04,21,8.50
2016,04,08,04,22,8.50
2016,04,08,04,23,8.50
2016,04,08,04,24,8.50
2016,04,08,04,25,8.40
2016,04,08,04,26,8.40
2016,04,08,04,27,8.40
2016,04,08,04,28,8.40
2016,04,08,04,29,8.40
2016,04,08,04,30,8.40
2016,04,08,04,31,8.40
2016,04,08,04,32,8.30
2016,04,08,04,33,8.30
2016,04,08,04,34,8.40
2016,04,08,04,35,8.40
2016,04,08,04,36,8.40
2016,04,08,04,37,8.40
2016,04,08,04,38,8.40
2016,04,08,04,39,8.30
2016,04,08,04,40,8.30
2016,04,08,04,41,8.30
2016,04,08,04,42,8.30
2016,04,08,04,43,8.40
2016,04,08,04,44,8.40
2016,04,08,04,45,8.40
2016,04,08,04,46,8.40
2016,04,08,04,47,8.40
2016,04,08,04,48,8.40
2016,04,08,04,49,8.40
2016,04,08,04,50,8.40
2016,04,08,04,51,8.40
2016,04,08,04,52,8.40
2016,04,08,04,53,8.40
2016,04,08,04,54,8.40
2016,04,08,04,55,8.40
2016,04,08,04,56,8.30
2016,04,08,04,57,8.30
2016,04,08,04,58,8.30
2016,04,08,04,59,8.30
2016,04,08,05,00,8.20
2016,04,08,05,01,8.20
2016,04,08,05,02,8.20
2016,04,08,05,03,8.20
2016,04,08,05,04,8.20
2016,04,08,05,05,8.20
2016,04,08,05,06,8.20
2016,04,08,05,07,8.20
2016,04,08,05,08,8.20
2016,04,08,05,09,8.20
2016,04,08,05,10,8.20
2016,04,08,05,11,8.20
2016,04,08,05,12,8.20
2016,04,08,05,13,8.20
2016,04,08,05,14,8.20
2016,04,08,05,15,8.20
2016,04,08,05,16,8.10
2016,04,08,05,17,8.10
2016,04,08,05,18,8.10
2016,04,08,05,19,8.10
2016,04,08,05,20,8.00
2016,04,08,05,21,8.00
2016,04,08,05,22,8.00
2016,04,08,05,23,8.00
2016,04,08,05,24,8.00
2016,04,08,05,25,8.00
2016,04,08,05,26,8.00
2016,04,08,05,27,7.90
2016,04,08,05,28,7.90
2016,04,08,05,29,7.90
2016,04,08,05,30,7.90
2016,04,08,05,31,8.00
2016,04,08,05,32,8.00
2016,04,08,05,33,8.00
2016,04,08,05,34,8.10
2016,04,08,05,35,8.10
2016,04,08,05,36,8.20
2016,04,08,05,37,8.20
2016,04,08,05,38,8.20
2016,04,08,05,39,8.20
2016,04,08,05,40,8.20
2016,04,08,05,41,8.20
2016,04,08,05,42,8.20
2016,04,08,05,43,8.10
2016,04,08,05,44,8.10
2016,04,08,05,45,8.10
2016,04,08,05,46,8.10
2016,04,08,05,47,8.00
2016,04,08,05,48,8.00
2016,04,08,05,49,8.00
2016,04,08,05,50,8.00
2016,04,08,05,51,8.00
2016,04,08,05,52,7.90
2016,04,08,05,53,7.90
2016,04,08,05,54,7.90
2016,04,08,05,55,7.90
2016,04,08,05,56,7.90
2016,04,08,05,57,7.90
2016,04,08,05,58,7.90
2016,04,08,05,59,7.80
2016,04,08,06,00,7.80
2016,04,08,06,01,7.80
2016,04,08,06,02,7.80
2016,04,08,06,03,7.80
2016,04,08,06,04,7.80
2016,04,08,06,05,7.80
2016,04,08,06,06,7.80
2016,04,08,06,07,7.80
2016,04,08,06,08,7.80
2016,04,08,06,09,7.80
2016,04,08,06,10,7.80
2016,04,08,06,11,7.80
2016,04,08,06,12,7.80
2016,04,08,06,13,7.80
2016,04,08,06,14,7.80
2016,04,08,06,15,7.80
2016,04,08,06,16,7.80
2016,04,08,06,17,7.80
2016,04,08,06,18,7.80
2016,04,08,06,19,7.70
2016,04,08,06,20,7.70
2016,04,08,06,21,7.80
2016,04,08,06,22,7.80
2016,04,08,06,23,7.80
2016,04,08,06,24,7.80
2016,04,08,06,25,7.80
2016,04,08,06,26,7.80
2016,04,08,06,27,7.80
2016,04,08,06,28,7.80
2016,04,08,06,29,7.80
2016,04,08,06,30,7.80
2016,04,08,06,31,7.70
2016,04,08,06,32,7.70
2016,04,08,06,33,7.70
2016,04,08,06,34,7.70
2016,04,08,06,35,7.60
2016,04,08,06,36,7.60
2016,04,08,06,37,7.60
2016,04,08,06,38,7.60
2016,04,08,06,39,7.50
2016,04,08,06,40,7.50
2016,04,08,06,41,7.50
2016,04,08,06,42,7.60
2016,04,08,06,43,7.60
2016,04,08,06,44,7.70
2016,04,08,06,45,7.70
2016,04,08,06,46,7.80
2016,04,08,06,47,7.80
2016,04,08,06,48,7.80
2016,04,08,06,49,7.80
2016,04,08,06,50,7.80
2016,04,08,06,51,7.80
2016,04,08,06,52,7.80
2016,04,08,06,53,7.80
2016,04,08,06,54,7.80
2016,04,08,06,55,7.80
2016,04,08,06,56,7.80
2016,04,08,06,57,7.80
2016,04,08,06,58,7.80
2016,04,08,06,59,7.80
2016,04,08,07,00,7.80
2016,04,08,07,01,7.80
2016,04,08,07,02,7.80
2016,04,08,07,03,7.80
2016,04,08,07,04,7.80
2016,04,08,07,05,7.90
2016,04,08,07,06,7.90
2016,04,08,07,07,8.00
2016,04,08,07,08,8.00
2016,04,08,07,09,8.00
2016,04,08,07,10,8.00
2016,04,08,07,11,8.10
2016,04,08,07,12,8.10
2016,04,08,07,13,8.20
2016,04,08,07,14,8.20
2016,04,08,07,15,8.20
2016,04,08,07,16,8.20
2016,04,08,07,17,8.20
2016,04,08,07,18,8.20
2016,04,08,07,19,8.20
2016,04,08,07,20,8.20
2016,04,08,07,21,8.20
2016,04,08,07,22,8.20
2016,04,08,07,23,8.20
2016,04,08,07,24,8.20
2016,04,08,07,25,8.20
2016,04,08,07,26,8.20
2016,04,08,07,27,8.20
2016,04,08,07,28,8.20
2016,04,08,07,29,8.20
2016,04,08,07,30,8.20
2016,04,08,07,31,8.20
2016,04,08,07,32,8.20
2016,04,08,07,33,8.30
2016,04,08,07,34,8.30
2016,04,08,07,35,8.40
2016,04,08,07,36,8.40
2016,04,08,07,37,8.50
2016,04,08,07,38,8.60
2016,04,08,07,39,8.60
2016,04,08,07,40,8.70
2016,04,08,07,41,8.70
2016,04,08,07,42,8.70
2016,04,08,07,43,8.80
2016,04,08,07,44,8.80
2016,04,08,07,45,8.90
2016,04,08,07,46,9.00
2016,04,08,07,47,9.00
2016,04,08,07,48,9.10
2016,04,08,07,49,9.20
2016,04,08,07,50,9.20
2016,04,08,07,51,9.30
2016,04,08,07,52,9.30
2016,04,08,07,53,9.40
2016,04,08,07,54,9.40
2016,04,08,07,55,9.50
2016,04,08,07,56,9.60
2016,04,08,07,57,9.60
2016,04,08,07,58,9.70
2016,04,08,07,59,9.70
2016,04,08,08,00,9.80
2016,04,08,08,01,9.90
2016,04,08,08,02,10.00
2016,04,08,08,03,10.10
2016,04,08,08,04,10.10
2016,04,08,08,05,10.20
2016,04,08,08,06,10.30
2016,04,08,08,07,10.40
2016,04,08,08,08,10.50
2016,04,08,08,09,10.60
2016,04,08,08,10,10.70
2016,04,08,08,11,10.90
2016,04,08,08,12,10.90
2016,04,08,08,13,11.10
2016,04,08,08,14,11.10
2016,04,08,08,15,11.20
2016,04,08,08,16,11.20
2016,04,08,08,17,11.20
2016,04,08,08,18,11.30
2016,04,08,08,19,11.40
2016,04,08,08,20,11.50
2016,04,08,08,21,11.60
2016,04,08,08,22,11.80
2016,04,08,08,23,11.80
2016,04,08,08,24,11.80
2016,04,08,08,25,11.80
2016,04,08,08,26,11.90
2016,04,08,08,27,11.90
2016,04,08,08,28,12.00
2016,04,08,08,29,12.00
2016,04,08,08,30,12.10
2016,04,08,08,31,12.20
2016,04,08,08,32,12.30
2016,04,08,08,33,12.30
2016,04,08,08,34,12.40
2016,04,08,08,35,12.40
2016,04,08,08,36,12.50
2016,04,08,08,37,12.50
2016,04,08,08,38,12.60
2016,04,08,08,39,12.70
2016,04,08,08,40,12.70
2016,04,08,08,41,12.80
2016,04,08,08,42,12.80
2016,04,08,08,43,12.90
2016,04,08,08,44,13.00
2016,04,08,08,45,13.00
2016,04,08,08,46,13.10
2016,04,08,08,47,13.20
2016,04,08,08,48,13.30
2016,04,08,08,49,13.50
2016,04,08,08,50,13.60
2016,04,08,08,51,13.70
2016,04,08,08,52,13.90
2016,04,08,08,53,14.00
2016,04,08,08,54,14.10
2016,04,08,08,55,14.20
2016,04,08,08,56,14.30
2016,04,08,08,57,14.50
2016,04,08,08,58,14.60
2016,04,08,08,59,14.60
2016,04,08,09,00,14.70
2016,04,08,09,01,14.80
2016,04,08,09,02,14.80
2016,04,08,09,03,14.90
2016,04,08,09,04,15.00
2016,04,08,09,05,15.10
2016,04,08,09,06,15.20
2016,04,08,09,07,15.20
2016,04,08,09,08,15.30
2016,04,08,09,09,15.30
2016,04,08,09,10,15.30
2016,04,08,09,11,15.30
2016,04,08,09,12,15.30
2016,04,08,09,13,15.70
2016,04,08,09,14,15.80
2016,04,08,09,15,15.80
2016,04,08,09,16,15.90
2016,04,08,09,17,15.90
2016,04,08,09,18,15.90
2016,04,08,09,19,16.00
2016,04,08,09,20,16.10
2016,04,08,09,21,16.10
2016,04,08,09,22,16.10
2016,04,08,09,23,16.10
2016,04,08,09,24,16.20
2016,04,08,09,25,16.20
2016,04,08,09,26,16.20
2016,04,08,09,27,16.10
2016,04,08,09,28,16.10
2016,04,08,09,29,16.10
2016,04,08,09,30,16.10
2016,04,08,09,31,16.10
2016,04,08,09,32,16.10
2016,04,08,09,33,16.10
2016,04,08,09,34,16.20
2016,04,08,09,35,16.20
2016,04,08,09,36,16.20
2016,04,08,09,37,16.20
2016,04,08,09,38,16.20
2016,04,08,09,39,16.20
2016,04,08,09,40,16.20
2016,04,08,09,41,16.20
2016,04,08,09,42,16.10
2016,04,08,09,43,16.10
2016,04,08,09,44,16.10
2016,04,08,09,45,16.10
2016,04,08,09,46,16.00
2016,04,08,09,47,15.90
2016,04,08,09,48,15.90
2016,04,08,09,49,15.90
2016,04,08,09,50,15.90
2016,04,08,09,51,15.90
2016,04,08,09,52,15.90
2016,04,08,09,53,16.00
2016,04,08,09,54,16.10
2016,04,08,09,55,16.10
2016,04,08,09,56,16.20
2016,04,08,09,57,16.30
2016,04,08,09,58,16.40
2016,04,08,09,59,16.50
2016,04,08,10,00,16.60
2016,04,08,10,01,16.70
2016,04,08,10,02,16.70
2016,04,08,10,03,16.80
2016,04,08,10,04,16.80
2016,04,08,10,05,16.80
2016,04,08,10,06,16.90
2016,04,08,10,07,16.80
2016,04,08,10,08,16.80
2016,04,08,10,09,16.80
2016,04,08,10,10,16.90
2016,04,08,10,11,16.90
2016,04,08,10,12,16.90
2016,04,08,10,13,16.90
2016,04,08,10,14,16.90
2016,04,08,10,15,16.90
2016,04,08,10,16,16.90
2016,04,08,10,17,16.80
2016,04,08,10,18,16.90
2016,04,08,10,19,16.90
2016,04,08,10,20,17.00
2016,04,08,10,21,17.10
2016,04,08,10,22,17.20
2016,04,08,10,23,17.30
2016,04,08,10,24,17.30
2016,04,08,10,25,17.40
2016,04,08,10,26,17.50
2016,04,08,10,27,17.60
2016,04,08,10,28,17.60
2016,04,08,10,29,17.60
2016,04,08,10,30,17.70
2016,04,08,10,31,17.70
2016,04,08,10,32,17.70
2016,04,08,10,33,17.80
2016,04,08,10,34,17.70
2016,04,08,10,35,17.70
2016,04,08,10,36,17.80
2016,04,08,10,37,17.90
2016,04,08,10,38,17.90
2016,04,08,10,39,18.00
2016,04,08,10,40,18.20
2016,04,08,10,41,18.30
2016,04,08,10,42,18.40
2016,04,08,10,43,18.40
2016,04,08,10,44,18.40
2016,04,08,10,45,18.50
2016,04,08,10,46,18.60
2016,04,08,10,47,18.70
2016,04,08,10,48,18.80
2016,04,08,10,49,18.90
2016,04,08,10,50,19.00
2016,04,08,10,51,19.10
2016,04,08,10,52,19.20
2016,04,08,10,53,19.30
2016,04,08,10,54,19.30
2016,04,08,10,55,19.20
2016,04,08,10,56,19.10
2016,04,08,10,57,18.90
2016,04,08,10,58,18.90
2016,04,08,10,59,18.90
2016,04,08,11,00,18.90
2016,04,08,11,01,18.90
2016,04,08,11,02,18.90
2016,04,08,11,03,18.90
2016,04,08,11,04,18.90
2016,04,08,11,05,18.90
2016,04,08,11,06,18.90
2016,04,08,11,07,18.90
2016,04,08,11,08,19.00
2016,04,08,11,09,19.10
2016,04,08,11,10,19.30
2016,04,08,11,11,19.30
2016,04,08,11,12,19.40
2016,04,08,11,13,19.50
2016,04,08,11,14,19.60
2016,04,08,11,15,19.70
2016,04,08,11,16,19.80
2016,04,08,11,17,19.90
2016,04,08,11,18,19.90
2016,04,08,11,19,19.90
2016,04,08,11,20,19.80
2016,04,08,11,21,19.80
2016,04,08,11,22,19.90
2016,04,08,11,23,20.00
2016,04,08,11,24,20.10
2016,04,08,11,25,20.00
2016,04,08,11,26,19.90
2016,04,08,11,27,19.90
2016,04,08,11,28,19.80
2016,04,08,11,29,19.70
2016,04,08,11,30,19.70
2016,04,08,11,31,19.70
2016,04,08,11,32,19.80
2016,04,08,11,33,19.90
2016,04,08,11,34,20.00
2016,04,08,11,35,20.10
2016,04,08,11,36,20.30
2016,04,08,11,37,20.40
2016,04,08,11,38,20.50
2016,04,08,11,39,20.70
2016,04,08,11,40,20.80
2016,04,08,11,41,21.00
2016,04,08,11,42,21.10
2016,04,08,11,43,21.10
2016,04,08,11,44,21.30
2016,04,08,11,45,21.30
2016,04,08,11,46,21.40
2016,04,08,11,47,21.50
2016,04,08,11,48,21.60
2016,04,08,11,49,21.60
2016,04,08,11,50,21.60
2016,04,08,11,51,21.60
2016,04,08,11,52,21.70
2016,04,08,11,53,21.90
2016,04,08,11,54,22.00
2016,04,08,11,55,22.20
2016,04,08,11,56,22.30
2016,04,08,11,57,22.30
2016,04,08,11,58,22.40
2016,04,08,11,59,22.40
2016,04,08,12,00,22.50
2016,04,08,12,01,22.60
2016,04,08,12,02,22.60
2016,04,08,12,03,22.50
2016,04,08,12,04,22.50
2016,04,08,12,05,22.50
2016,04,08,12,06,22.50
2016,04,08,12,07,22.60
2016,04,08,12,08,22.70
2016,04,08,12,09,22.70
2016,04,08,12,10,22.80
2016,04,08,12,11,22.80
2016,04,08,12,12,22.60
2016,04,08,12,13,22.60
2016,04,08,12,14,22.70
2016,04,08,12,15,22.80
2016,04,08,12,16,22.90
2016,04,08,12,17,22.90
2016,04,08,12,18,22.80
2016,04,08,12,19,22.80
2016,04,08,12,20,22.80
2016,04,08,12,21,22.80
2016,04,08,12,22,22.90
2016,04,08,12,23,22.90
2016,04,08,12,24,22.90
2016,04,08,12,25,22.80
2016,04,08,12,26,22.70
2016,04,08,12,27,22.80
2016,04,08,12,28,22.80
2016,04,08,12,29,22.80
2016,04,08,12,30,22.80
2016,04,08,12,31,22.90
2016,04,08,12,32,22.90
2016,04,08,12,33,22.90
2016,04,08,12,34,22.90
2016,04,08,12,35,22.90
2016,04,08,12,36,23.00
2016,04,08,12,37,23.10
2016,04,08,12,38,23.20
2016,04,08,12,39,23.20
2016,04,08,12,40,23.30
2016,04,08,12,41,23.40
2016,04,08,12,42,23.50
2016,04,08,12,43,23.60
2016,04,08,12,44,23.70
2016,04,08,12,45,23.70
2016,04,08,12,46,23.80
2016,04,08,12,47,23.80
2016,04,08,12,48,23.90
2016,04,08,12,49,24.00
2016,04,08,12,50,24.10
2016,04,08,12,51,24.10
2016,04,08,12,52,24.20
2016,04,08,12,53,24.20
2016,04,08,12,54,24.20
2016,04,08,12,55,24.30
2016,04,08,12,56,24.30
2016,04,08,12,57,24.40
2016,04,08,12,58,24.40
2016,04,08,12,59,24.40
2016,04,08,13,00,24.30
2016,04,08,13,01,24.30
2016,04,08,13,02,24.30
2016,04,08,13,03,24.30
2016,04,08,13,04,24.20
2016,04,08,13,05,24.20
2016,04,08,13,06,24.20
2016,04,08,13,07,24.20
2016,04,08,13,08,24.30
2016,04,08,13,09,24.30
2016,04,08,13,10,24.20
2016,04,08,13,11,24.10
2016,04,08,13,12,24.00
2016,04,08,13,13,23.90
2016,04,08,13,14,23.90
2016,04,08,13,15,23.80
2016,04,08,13,16,23.80
2016,04,08,13,17,23.70
2016,04,08,13,18,23.60
2016,04,08,13,19,23.50
2016,04,08,13,20,23.30
2016,04,08,13,21,23.30
2016,04,08,13,22,23.30
2016,04,08,13,23,23.20
2016,04,08,13,24,23.10
2016,04,08,13,25,23.10
2016,04,08,13,26,23.10
2016,04,08,13,27,23.10
2016,04,08,13,28,23.00
2016,04,08,13,29,22.90
2016,04,08,13,30,22.90
2016,04,08,13,31,22.90
2016,04,08,13,32,22.80
2016,04,08,13,33,22.80
2016,04,08,13,34,22.70
2016,04,08,13,35,22.80
2016,04,08,13,36,22.80
2016,04,08,13,37,22.70
2016,04,08,13,38,22.60
2016,04,08,13,39,22.40
2016,04,08,13,40,22.20
2016,04,08,13,41,22.00
2016,04,08,13,42,21.90
2016,04,08,13,43,21.80
2016,04,08,13,44,21.70
2016,04,08,13,45,21.80
2016,04,08,13,46,21.90
2016,04,08,13,47,21.90
2016,04,08,13,48,21.80
2016,04,08,13,49,21.70
2016,04,08,13,50,21.70
2016,04,08,13,51,21.70
2016,04,08,13,52,21.80
2016,04,08,13,53,21.80
2016,04,08,13,54,21.90
2016,04,08,13,55,21.80
2016,04,08,13,56,21.70
2016,04,08,13,57,21.60
2016,04,08,13,58,21.40
2016,04,08,13,59,21.30
2016,04,08,14,00,21.30
2016,04,08,14,01,21.30
2016,04,08,14,02,21.30
2016,04,08,14,03,21.20
2016,04,08,14,04,21.10
2016,04,08,14,05,21.10
2016,04,08,14,06,21.00
2016,04,08,14,07,21.00
2016,04,08,14,08,21.00
2016,04,08,14,09,21.00
2016,04,08,14,10,21.00
2016,04,08,14,11,21.00
2016,04,08,14,12,21.10
2016,04,08,14,13,21.20
2016,04,08,14,14,21.30
2016,04,08,14,15,21.30
2016,04,08,14,16,21.30
2016,04,08,14,17,21.40
2016,04,08,14,18,21.60
2016,04,08,14,19,21.70
2016,04,08,14,20,21.60
2016,04,08,14,21,21.50
2016,04,08,14,22,21.40
2016,04,08,14,23,21.30
2016,04,08,14,24,21.30
2016,04,08,14,25,21.30
2016,04,08,14,26,21.20
2016,04,08,14,27,21.20
2016,04,08,14,28,21.20
2016,04,08,14,29,21.20
2016,04,08,14,30,21.20
2016,04,08,14,31,21.20
2016,04,08,14,32,21.20
2016,04,08,14,33,21.30
2016,04,08,14,34,21.30
2016,04,08,14,35,21.30
2016,04,08,14,36,21.30
2016,04,08,14,37,21.30
2016,04,08,14,38,21.30
2016,04,08,14,39,21.30
2016,04,08,14,40,21.30
2016,04,08,14,41,21.40
2016,04,08,14,42,21.50
2016,04,08,14,43,21.60
2016,04,08,14,44,21.60
2016,04,08,14,45,21.70
2016,04,08,14,46,21.70
2016,04,08,14,47,21.60
2016,04,08,14,48,21.60
2016,04,08,14,49,21.60
2016,04,08,14,50,21.60
2016,04,08,14,51,21.60
2016,04,08,14,52,21.60
2016,04,08,14,53,21.60
2016,04,08,14,54,21.60
2016,04,08,14,55,21.70
2016,04,08,14,56,21.70
2016,04,08,14,57,21.80
2016,04,08,14,58,21.80
2016,04,08,14,59,21.80
2016,04,08,15,00,21.80
2016,04,08,15,01,21.80
2016,04,08,15,02,21.80
2016,04,08,15,03,21.90
2016,04,08,15,04,21.90
2016,04,08,15,05,21.90
2016,04,08,15,06,21.80
2016,04,08,15,07,21.90
2016,04,08,15,08,21.90
2016,04,08,15,09,22.00
2016,04,08,15,10,22.00
2016,04,08,15,11,21.90
2016,04,08,15,12,21.90
2016,04,08,15,13,22.00
2016,04,08,15,14,22.10
2016,04,08,15,15,22.20
2016,04,08,15,16,22.30
2016,04,08,15,17,22.40
2016,04,08,15,18,22.50
2016,04,08,15,19,22.50
2016,04,08,15,20,22.50
2016,04,08,15,21,22.50
2016,04,08,15,22,22.60
2016,04,08,15,23,22.60
2016,04,08,15,24,22.70
2016,04,08,15,25,22.80
2016,04,08,15,26,22.90
2016,04,08,15,27,22.90
2016,04,08,15,28,22.90
2016,04,08,15,29,23.00
2016,04,08,15,30,23.00
2016,04,08,15,31,22.80
2016,04,08,15,32,22.50
2016,04,08,15,33,22.20
2016,04,08,15,34,22.10
2016,04,08,15,35,22.00
2016,04,08,15,36,21.90
2016,04,08,15,37,21.90
2016,04,08,15,38,21.90
2016,04,08,15,39,21.80
2016,04,08,15,40,21.80
2016,04,08,15,41,21.70
2016,04,08,15,42,21.70
2016,04,08,15,43,21.70
2016,04,08,15,44,21.80
2016,04,08,15,45,21.90
2016,04,08,15,46,22.00
2016,04,08,15,47,22.10
2016,04,08,15,48,22.10
2016,04,08,15,49,22.10
2016,04,08,15,50,21.90
2016,04,08,15,51,21.90
2016,04,08,15,52,21.90
2016,04,08,15,53,21.80
2016,04,08,15,54,21.70
2016,04,08,15,55,21.60
2016,04,08,15,56,21.60
2016,04,08,15,57,21.50
2016,04,08,15,58,21.50
2016,04,08,15,59,21.60
2016,04,08,16,00,21.60
2016,04,08,16,01,21.60
2016,04,08,16,02,21.60
2016,04,08,16,03,21.50
2016,04,08,16,04,21.30
2016,04,08,16,05,21.30
2016,04,08,16,06,21.30
2016,04,08,16,07,21.30
2016,04,08,16,08,21.30
2016,04,08,16,09,21.30
2016,04,08,16,10,21.40
2016,04,08,16,11,21.50
2016,04,08,16,12,21.50
2016,04,08,16,13,21.40
2016,04,08,16,14,21.40
2016,04,08,16,15,21.40
2016,04,08,16,16,21.30
2016,04,08,16,17,21.30
2016,04,08,16,18,21.20
2016,04,08,16,19,21.10
2016,04,08,16,20,21.00
2016,04,08,16,21,21.00
2016,04,08,16,22,21.00
2016,04,08,16,23,21.10
2016,04,08,16,24,21.20
2016,04,08,16,25,21.30
2016,04,08,16,26,21.30
2016,04,08,16,27,21.30
2016,04,08,16,28,21.50
2016,04,08,16,29,21.60
2016,04,08,16,30,21.60
2016,04,08,16,31,21.60
2016,04,08,16,32,21.60
2016,04,08,16,33,21.60
2016,04,08,16,34,21.60
2016,04,08,16,35,21.40
2016,04,08,16,36,21.30
2016,04,08,16,37,21.40
2016,04,08,16,38,21.60
2016,04,08,16,39,21.60
2016,04,08,16,40,21.70
2016,04,08,16,41,21.70
2016,04,08,16,42,21.60
2016,04,08,16,43,21.50
2016,04,08,16,44,21.40
2016,04,08,16,45,21.40
2016,04,08,16,46,21.40
2016,04,08,16,47,21.30
2016,04,08,16,48,21.30
2016,04,08,16,49,21.30
2016,04,08,16,50,21.30
2016,04,08,16,51,21.10
2016,04,08,16,52,21.00
2016,04,08,16,53,20.90
2016,04,08,16,54,20.80
2016,04,08,16,55,20.70
2016,04,08,16,56,20.50
2016,04,08,16,57,20.40
2016,04,08,16,58,20.20
2016,04,08,16,59,20.20
2016,04,08,17,00,20.20
2016,04,08,17,01,20.20
2016,04,08,17,02,20.20
2016,04,08,17,03,20.20
2016,04,08,17,04,20.20
2016,04,08,17,05,20.20
2016,04,08,17,06,20.20
2016,04,08,17,07,20.20
2016,04,08,17,08,20.20
2016,04,08,17,09,20.20
2016,04,08,17,10,20.40
2016,04,08,17,11,20.40
2016,04,08,17,12,20.50
2016,04,08,17,13,20.40
2016,04,08,17,14,20.40
2016,04,08,17,15,20.40
2016,04,08,17,16,20.40
2016,04,08,17,17,20.30
2016,04,08,17,18,20.20
2016,04,08,17,19,20.20
2016,04,08,17,20,20.20
2016,04,08,17,21,20.20
2016,04,08,17,22,20.10
2016,04,08,17,23,20.20
2016,04,08,17,24,20.20
2016,04,08,17,25,20.10
2016,04,08,17,26,20.10
2016,04,08,17,27,20.10
2016,04,08,17,28,20.10
2016,04,08,17,29,20.20
2016,04,08,17,30,20.20
2016,04,08,17,31,20.20
2016,04,08,17,32,20.20
2016,04,08,17,33,20.20
2016,04,08,17,34,20.10
2016,04,08,17,35,19.90
2016,04,08,17,36,19.70